This demonstration page uses our WeatherBlox Daily Observations layout. Learn more.

Hourly Observations for September 8, 2018

Temp ( °F °C ) Dew Point ( °F °C ) Humidity (%) Winds ( mph kmh ) Pressure ( in mb ) Visibility ( mi km ) Precip ( " mm )
12:15 am 00:15 Cloudy with Mist and Fog 62 16.5 62 16.5 100 100 ENE 7 11 30.15 1021 4 6.437376 0 0
12:35 am 00:35 Cloudy with Mist and Fog 62 16.5 62 16.5 100 100 NE 8 13 30.15 1021 4 6.437376 0 0
12:55 am 00:55 Cloudy with Light Drizzle 61 16.2 61 16.2 100 100 ENE 7 11 30.15 1021 4 6.437376 0 0
1:15 am 01:15 Cloudy with Mist and Fog 61 16 61 16 100 100 E 12 19 30.15 1021 4 6.437376 0 0
1:35 am 01:35 Cloudy 59 15.2 59 15.2 100 100 E 8 13 30.15 1021 7 11.265408 0 0
1:55 am 01:55 Cloudy 59 15.2 59 15.2 100 100 E 10 17 30.15 1021 7 11.265408 0 0
2:15 am 02:15 Cloudy with Mist and Fog 59 15.2 59 15.2 100 100 ENE 3 6 30.15 1021 5 8.04672 0 0
2:35 am 02:35 Cloudy with Mist and Fog 59 15.1 59 15.1 100 100 ENE 5 7 30.15 1021 2.5 4.02336 0 0
2:55 am 02:55 Cloudy with Mist and Fog 59 15.1 59 15.1 100 100 NE 5 7 30.15 1021 2.5 4.02336 0.01 0.254
3:15 am 03:15 Cloudy with Mist and Fog 59 15.1 59 15.1 100 100 NE 7 11 30.15 1021 4 6.437376 0 0
3:35 am 03:35 Cloudy with Mist and Fog 59 15.1 59 15.1 100 100 NE 7 11 30.15 1021 5 8.04672 0 0
3:55 am 03:55 Cloudy with Mist and Fog 59 15.1 59 15.1 100 100 NE 9 15 30.15 1021 4 6.437376 0 0
4:15 am 04:15 Cloudy with Mist and Fog 59 15.1 59 15.1 100 100 NE 9 15 30.12 1020 4 6.437376 0 0
4:35 am 04:35 Cloudy with Mist and Fog 59 15 59 15 100 100 NE 9 15 30.12 1020 2 3.218688 0 0
4:55 am 04:55 Cloudy with Mist and Fog 59 14.8 59 14.8 100 100 ENE 7 11 30.12 1020 2 3.218688 0 0
5:15 am 05:15 Cloudy with Mist and Fog 59 14.8 59 14.8 100 100 ENE 8 13 30.12 1020 2 3.218688 0 0
5:35 am 05:35 Cloudy with Mist and Fog 58 14.5 58 14.5 100 100 E 7 11 30.12 1020 5 8.04672 0 0
5:55 am 05:55 Cloudy 58 14.6 58 14.6 100 100 ENE 5 7 30.12 1020 7 11.265408 0 0
6:15 am 06:15 Cloudy 58 14.7 58 14.7 100 100 NE 6 9 30.12 1020 7 11.265408 0 0
6:35 am 06:35 Cloudy 58 14.5 58 14.5 100 100 ENE 8 13 30.12 1020 7 11.265408 0 0
6:55 am 06:55 Cloudy with Mist and Fog 58 14.3 58 14.3 100 100 ENE 7 11 30.12 1020 4 6.437376 0 0
7:15 am 07:15 Cloudy 58 14.3 58 14.3 100 100 ENE 7 11 30.12 1020 10 16.09344 0 0
7:35 am 07:35 Cloudy 58 14.5 58 14.3 99 99 ENE 7 11 30.12 1020 10 16.09344 0 0
7:55 am 07:55 Cloudy with Mist and Fog 58 14.4 58 14.2 99 99 NE 6 9 30.12 1020 5 8.04672 0 0
8:15 am 08:15 Cloudy with Mist and Fog 58 14.4 58 14.4 100 100 NE 6 9 30.12 1020 4 6.437376 0 0
8:35 am 08:35 Cloudy with Mist and Fog 58 14.5 58 14.5 100 100 NE 5 7 30.12 1020 5 8.04672 0 0
8:55 am 08:55 Cloudy 58 14.7 58 14.7 100 100 NE 6 9 30.12 1020 7 11.265408 0 0
9:15 am 09:15 Cloudy 59 15 58 14.7 98 98 NE 6 9 30.12 1020 7 11.265408 0 0
9:35 am 09:35 Cloudy 60 15.5 59 15.2 98 98 ENE 7 11 30.12 1020 7 11.265408 0 0
9:55 am 09:55 Cloudy 61 16 60 15.5 97 97 ENE 7 11 30.12 1020 10 16.09344 0 0
10:15 am 10:15 Cloudy 62 16.4 60 15.5 94 94 ENE 8 13 30.12 1020 10 16.09344 0 0
10:35 am 10:35 Cloudy 64 17.5 61 16.1 92 92 ENE 9 15 30.09 1019 10 16.09344 0 0
10:55 am 10:55 Cloudy 64 18 62 16.6 92 92 ENE 9 15 30.09 1019 10 16.09344 0 0
11:15 am 11:15 Cloudy 65 18.6 62 16.7 89 89 E 9 15 30.09 1019 10 16.09344 0 0
11:35 am 11:35 Cloudy 66 19 62 16.6 86 86 E 7 11 30.09 1019 10 16.09344 0 0
11:55 am 11:55 Cloudy 67 19.3 62 16.6 84 84 E 9 15 30.09 1019 10 16.09344 0 0
12:15 pm 12:15 Cloudy 67 19.3 62 16.6 84 84 E 8 13 30.06 1018 10 16.09344 0 0
12:35 pm 12:35 Cloudy 68 20.2 62 16.8 81 81 E 10 17 30.06 1018 10 16.09344 0 0
12:55 pm 12:55 Mostly Cloudy 69 20.6 62 16.9 79 79 E 5 7 30.06 1018 10 16.09344 0 0
1:15 pm 13:15 Mostly Cloudy 70 20.9 62 16.8 78 78 SE 6 9 30.03 1017 10 16.09344 0 0
1:35 pm 13:35 Mostly Cloudy 70 21.3 62 16.9 76 76 E 7 11 30.03 1017 10 16.09344 0 0
1:55 pm 13:55 Cloudy 69 20.7 63 17 79 79 E 10 17 30.03 1017 10 16.09344 0 0
2:15 pm 14:15 Cloudy 69 20.4 63 17 81 81 E 10 17 30.06 1018 10 16.09344 0 0
2:35 pm 14:35 Cloudy 69 20.5 63 17.1 81 81 E 10 17 30.06 1018 10 16.09344 0 0
2:55 pm 14:55 Cloudy 68 20.2 63 17.1 82 82 E 12 19 30.06 1018 10 16.09344 0 0
3:15 pm 15:15 Cloudy 67 19.6 63 17 85 85 E 12 19 30.06 1018 10 16.09344 0 0
3:35 pm 15:35 Cloudy 67 19.5 63 17 86 86 ESE 10 17 30.06 1018 10 16.09344 0 0
3:55 pm 15:55 Cloudy with Light Drizzle 66 19 64 17.9 93 93 E 10 17 30.06 1018 5 8.04672 0 0
4:15 pm 16:15 Cloudy 68 19.9 65 18.2 90 90 ESE 12 19 30.03 1017 7 11.265408 0 0
4:35 pm 16:35 Cloudy 69 20.7 63 17.2 80 80 E 13 20 30 1016 10 16.09344 0 0
4:55 pm 16:55 Cloudy 70 20.9 63 17.2 79 79 ESE 14 22 30 1016 10 16.09344 0 0
5:15 pm 17:15 Cloudy 70 21.1 63 17 78 78 ESE 17 28 30 1016 10 16.09344 0 0
5:35 pm 17:35 Mostly Cloudy 70 21.3 63 17 77 77 E 15 24 30 1016 10 16.09344 0 0
5:55 pm 17:55 Mostly Cloudy 69 20.5 62 16.9 80 80 ESE 14 22 30 1016 10 16.09344 0 0
6:15 pm 18:15 Cloudy 69 20.3 62 16.8 80 80 ESE 10 17 30.03 1017 10 16.09344 0 0
6:35 pm 18:35 Partly Cloudy 69 20.6 62 16.7 78 78 SE 10 17 30 1016 10 16.09344 0 0
6:55 pm 18:55 Partly Cloudy 69 20.8 62 16.7 77 77 ESE 9 15 29.97 1015 10 16.09344 0 0
7:15 pm 19:15 Partly Cloudy 69 20.5 62 16.6 78 78 SE 10 17 29.97 1015 10 16.09344 0 0
7:35 pm 19:35 Partly Cloudy 68 19.8 62 16.7 82 82 ESE 10 17 30 1016 10 16.09344 0 0
7:55 pm 19:55 Partly Cloudy 66 19.1 63 17 88 88 SE 8 13 30 1016 10 16.09344 0 0
8:15 pm 20:15 Partly Cloudy 65 18.2 62 16.8 92 92 SE 8 13 30 1016 10 16.09344 0 0
8:35 pm 20:35 Partly Cloudy 64 17.9 62 16.7 93 93 SE 6 9 30 1016 10 16.09344 0 0
8:55 pm 20:55 Clear 64 17.5 62 16.6 95 95 SE 5 7 30 1016 10 16.09344 0 0
9:15 pm 21:15 Clear 63 17 62 16.5 97 97 SSE 3 6 30.03 1017 10 16.09344 0 0
9:35 pm 21:35 Clear 61 16.2 61 15.9 98 98 SE 5 7 30.06 1018 10 16.09344 0 0
9:55 pm 21:55 Clear 60 15.8 60 15.6 99 99 SSE 3 6 30.06 1018 10 16.09344 0 0
10:15 pm 22:15 Clear 60 15.6 60 15.5 99 99 SE 5 7 30.06 1018 10 16.09344 0 0
10:35 pm 22:35 Clear 60 15.3 60 15.3 100 100 SE 3 6 30.06 1018 10 16.09344 0 0
10:55 pm 22:55 Clear 59 15.1 59 15.1 100 100 SE 3 6 30.06 1018 10 16.09344 0 0
11:15 pm 23:15 Clear 59 15.1 59 15.1 100 100 Calm 30.06 1018 10 16.09344 0 0
11:35 pm 23:35 Mostly Cloudy 59 15.1 59 15.1 100 100 Calm 30.06 1018 10 16.09344 0 0
11:55 pm 23:55 Cloudy 59 15.1 59 15.1 100 100 ESE 5 7 30.06 1018 10 16.09344 0 0

Powered by AerisWeather